TimeEDT,TemperatureF,Dew PointF,Humidity,Sea Level PressureIn,VisibilityMPH,Wind Direction,Wind SpeedMPH,Gust SpeedMPH,PrecipitationIn,Events,Conditions,WindDirDegrees,DateUTC
12:15 AM,71.6,68.0,88,29.57,10.0,SSW,10.4,-,N/A,,Mostly Cloudy,210,2013-06-28 04:15:00
12:35 AM,71.6,68.0,88,29.57,10.0,SSW,12.7,17.3,N/A,,Mostly Cloudy,210,2013-06-28 04:35:00
12:55 AM,71.6,68.0,88,29.57,10.0,SSW,10.4,19.6,N/A,,Mostly Cloudy,210,2013-06-28 04:55:00
1:15 AM,71.6,68.0,88,29.57,10.0,SSW,8.1,-,N/A,,Mostly Cloudy,210,2013-06-28 05:15:00
1:35 AM,71.6,68.0,88,29.57,10.0,SSW,6.9,-,N/A,,Overcast,210,2013-06-28 05:35:00
1:55 AM,71.6,68.0,88,29.57,10.0,SSW,10.4,-,N/A,,Overcast,200,2013-06-28 05:55:00
2:35 AM,73.4,68.0,83,29.56,10.0,SW,9.2,-,N/A,,Overcast,220,2013-06-28 06:35:00
2:55 AM,71.6,68.0,88,29.56,10.0,SW,8.1,-,N/A,,Overcast,220,2013-06-28 06:55:00
3:15 AM,71.6,68.0,88,29.56,10.0,SW,9.2,-,N/A,,Overcast,220,2013-06-28 07:15:00
3:35 AM,71.6,68.0,88,29.55,10.0,SW,5.8,-,N/A,,Overcast,230,2013-06-28 07:35:00
3:55 AM,71.6,68.0,88,29.55,10.0,SW,4.6,-,N/A,,Overcast,220,2013-06-28 07:55:00
4:15 AM,71.6,68.0,88,29.54,10.0,SW,5.8,-,N/A,,Overcast,220,2013-06-28 08:15:00
4:35 AM,71.6,68.0,88,29.55,10.0,SW,4.6,-,N/A,,Overcast,220,2013-06-28 08:35:00
4:55 AM,71.6,68.0,88,29.55,10.0,SW,3.5,-,N/A,,Overcast,230,2013-06-28 08:55:00
5:15 AM,71.6,68.0,88,29.55,10.0,SSW,3.5,-,N/A,,Overcast,200,2013-06-28 09:15:00
5:35 AM,71.6,68.0,88,29.56,10.0,Calm,Calm,-,N/A,,Overcast,0,2013-06-28 09:35:00
5:55 AM,71.6,68.0,88,29.56,5.0,West,3.5,-,N/A,Rain,Light Rain,260,2013-06-28 09:55:00
6:15 AM,71.6,68.0,88,29.57,5.0,West,3.5,-,N/A,,Overcast,260,2013-06-28 10:15:00
6:35 AM,71.6,68.0,88,29.57,5.0,WSW,5.8,-,N/A,,Overcast,240,2013-06-28 10:35:00
6:55 AM,71.6,68.0,88,29.58,5.0,SW,5.8,-,N/A,,Overcast,230,2013-06-28 10:55:00
7:15 AM,71.6,68.0,88,29.58,7.0,Calm,Calm,-,N/A,,Overcast,0,2013-06-28 11:15:00
7:35 AM,71.6,68.0,88,29.58,7.0,Calm,Calm,-,N/A,,Overcast,0,2013-06-28 11:35:00
7:55 AM,71.6,68.0,88,29.58,10.0,West,4.6,-,N/A,,Overcast,280,2013-06-28 11:55:00
8:55 AM,73.4,64.4,73,29.56,10.0,West,3.5,-,N/A,,Overcast,260,2013-06-28 12:55:00
9:15 AM,73.4,66.2,78,29.56,10.0,West,3.5,-,N/A,,Mostly Cloudy,270,2013-06-28 13:15:00
9:35 AM,73.4,66.2,78,29.56,10.0,West,5.8,-,N/A,,Mostly Cloudy,260,2013-06-28 13:35:00
9:55 AM,77.0,66.2,69,29.56,10.0,West,5.8,-,N/A,,Mostly Cloudy,270,2013-06-28 13:55:00
10:15 AM,77.0,66.2,69,29.56,10.0,WSW,5.8,-,N/A,,Mostly Cloudy,250,2013-06-28 14:15:00
10:35 AM,77.0,64.4,65,29.56,10.0,West,5.8,-,N/A,,Mostly Cloudy,260,2013-06-28 14:35:00
10:55 AM,78.8,64.4,61,29.57,10.0,WSW,9.2,-,N/A,,Scattered Clouds,240,2013-06-28 14:55:00
11:15 AM,78.8,64.4,61,29.56,10.0,West,6.9,-,N/A,,Mostly Cloudy,260,2013-06-28 15:15:00
11:35 AM,80.6,64.4,58,29.57,10.0,WSW,10.4,-,N/A,,Mostly Cloudy,240,2013-06-28 15:35:00
11:55 AM,80.6,64.4,58,29.57,10.0,SW,5.8,-,N/A,,Scattered Clouds,230,2013-06-28 15:55:00
12:15 PM,80.6,62.6,54,29.56,10.0,WNW,5.8,-,N/A,,Scattered Clouds,290,2013-06-28 16:15:00
12:35 PM,80.6,62.6,54,29.56,10.0,SW,8.1,-,N/A,,Scattered Clouds,220,2013-06-28 16:35:00
12:55 PM,80.6,62.6,54,29.56,10.0,West,5.8,9.2,N/A,,Scattered Clouds,260,2013-06-28 16:55:00
1:15 PM,82.4,62.6,51,29.55,10.0,SW,5.8,-,N/A,,Scattered Clouds,230,2013-06-28 17:15:00
1:35 PM,82.4,62.6,51,29.55,10.0,WSW,8.1,16.1,N/A,,Mostly Cloudy,250,2013-06-28 17:35:00
1:55 PM,82.4,62.6,51,29.55,10.0,WSW,9.2,-,N/A,,Mostly Cloudy,240,2013-06-28 17:55:00
2:15 PM,82.4,64.4,54,29.55,10.0,SW,8.1,-,N/A,,Mostly Cloudy,230,2013-06-28 18:15:00
2:35 PM,82.4,64.4,54,29.54,10.0,SSW,9.2,-,N/A,,Mostly Cloudy,200,2013-06-28 18:35:00
2:55 PM,82.4,64.4,54,29.52,10.0,SSW,10.4,-,N/A,,Mostly Cloudy,200,2013-06-28 18:55:00
3:15 PM,82.4,62.6,51,29.52,10.0,SSW,8.1,-,N/A,,Scattered Clouds,200,2013-06-28 19:15:00
3:35 PM,82.4,64.4,54,29.51,10.0,SSW,8.1,-,N/A,,Scattered Clouds,210,2013-06-28 19:35:00
3:55 PM,82.4,64.4,54,29.50,10.0,South,6.9,-,N/A,,Clear,190,2013-06-28 19:55:00
4:15 PM,82.4,64.4,54,29.50,10.0,SSW,5.8,-,N/A,,Mostly Cloudy,210,2013-06-28 20:15:00
4:35 PM,82.4,64.4,54,29.51,10.0,SSW,9.2,-,N/A,,Mostly Cloudy,210,2013-06-28 20:35:00
4:55 PM,82.4,62.6,51,29.49,10.0,SSW,10.4,-,N/A,,Scattered Clouds,210,2013-06-28 20:55:00
5:15 PM,82.4,64.4,54,29.50,10.0,SW,8.1,-,N/A,,Clear,220,2013-06-28 21:15:00
5:35 PM,82.4,62.6,51,29.51,10.0,SSW,11.5,-,N/A,,Clear,210,2013-06-28 21:35:00
5:55 PM,80.6,64.4,58,29.51,10.0,SSW,5.8,-,N/A,,Clear,210,2013-06-28 21:55:00
6:15 PM,80.6,64.4,58,29.50,10.0,SSW,8.1,-,N/A,,Clear,200,2013-06-28 22:15:00
6:35 PM,80.6,64.4,58,29.50,10.0,South,11.5,-,N/A,,Clear,190,2013-06-28 22:35:00
6:55 PM,80.6,66.2,61,29.51,10.0,South,10.4,-,N/A,,Clear,190,2013-06-28 22:55:00
7:15 PM,78.8,66.2,65,29.51,10.0,SSW,11.5,-,N/A,,Scattered Clouds,200,2013-06-28 23:15:00
7:35 PM,77.0,64.4,65,29.53,10.0,SSW,9.2,-,N/A,,Mostly Cloudy,210,2013-06-28 23:35:00
7:55 PM,73.4,60.8,65,29.56,10.0,WNW,11.5,18.4,N/A,,Overcast,300,2013-06-28 23:55:00
8:15 PM,69.8,60.8,73,29.56,10.0,WNW,6.9,-,N/A,,Overcast,290,2013-06-29 00:15:00
8:35 PM,69.8,60.8,73,29.56,10.0,Calm,Calm,-,N/A,,Overcast,0,2013-06-29 00:35:00
8:55 PM,69.8,60.8,73,29.56,10.0,Calm,Calm,-,N/A,,Overcast,0,2013-06-29 00:55:00
9:15 PM,69.8,60.8,73,29.56,10.0,Calm,Calm,-,N/A,,Mostly Cloudy,0,2013-06-29 01:15:00
9:35 PM,69.8,60.8,73,29.56,10.0,Calm,Calm,-,N/A,,Mostly Cloudy,0,2013-06-29 01:35:00
9:55 PM,69.8,60.8,73,29.56,10.0,South,3.5,-,N/A,,Scattered Clouds,190,2013-06-29 01:55:00
10:15 PM,69.8,60.8,73,29.57,10.0,SSW,4.6,-,N/A,,Scattered Clouds,200,2013-06-29 02:15:00
10:35 PM,71.6,60.8,69,29.56,10.0,Calm,Calm,-,N/A,,Mostly Cloudy,0,2013-06-29 02:35:00
10:55 PM,69.8,60.8,73,29.55,10.0,SSW,3.5,-,N/A,,Mostly Cloudy,210,2013-06-29 02:55:00
11:15 PM,69.8,60.8,73,29.55,10.0,South,3.5,-,N/A,,Scattered Clouds,190,2013-06-29 03:15:00
11:35 PM,68.0,60.8,78,29.55,10.0,Calm,Calm,-,N/A,,Mostly Cloudy,0,2013-06-29 03:35:00
11:55 PM,68.0,62.6,83,29.54,10.0,Calm,Calm,-,N/A,,Mostly Cloudy,0,2013-06-29 03:55:00